This demonstration page uses our WeatherBlox Daily Observations layout. Learn more.

Left ArrowRight Arrow

44.89941, -97.11507

Hourly Observations for January 12, 2016

Temp ( °F °C ) Dew Point ( °F °C ) Humidity (%) Winds ( mph kmh ) Pressure ( in mb ) Visibility ( mi km ) Precip ( " mm )
12:25 am 00:25 Partly Cloudy -3 -19.4 -11 -23.9 68 68 NNW 17 28 30.21 1023 10 16 0.00 0.00
12:36 am 00:36 Mostly Cloudy -3 -19.4 -11 -23.9 68 68 NNW 13 20 30.21 1023 10 16 0.00 0.00
12:50 am 00:50 Partly Cloudy -4 -20 -11 -24 71 71 NNW 14 22 30.21 1023 10 16 0.00 0.00
12:53 am 00:53 Partly Cloudy -4 -20 -11 -23.9 71 71 NNW 15 24 30.12 1020 10 16 0.00 0.00
1:53 am 01:53 Clear -4 -20 -12 -24.4 68 68 NNW 13 20 30.14 1021 10 16 0.00 0.00
2:53 am 02:53 Partly Cloudy -5 -20.6 -11 -23.9 75 75 NNW 12 19 30.17 1022 10 16 0.00 0.00
3:03 am 03:03 Mostly Cloudy -4 -20 -10 -23.3 75 75 NNW 13 20 30.30 1026 10 16 0.00 0.00
3:26 am 03:26 Partly Cloudy -4 -20 -10 -23.3 75 75 NW 13 20 30.30 1026 10 16 0.00 0.00
3:53 am 03:53 Clear -5 -20.6 -11 -23.9 75 75 NNW 14 22 30.19 1023 10 16 0.00 0.00
4:53 am 04:53 Clear -6 -21.1 -12 -24.4 75 75 NW 13 20 30.22 1023 10 16 0.00 0.00
5:53 am 05:53 Clear -7 -21.7 -13 -25 75 75 NNW 10 17 30.22 1023 10 16 0.00 0.00
6:53 am 06:53 Clear -7 -21.7 -13 -25 75 75 WNW 8 13 30.24 1024 10 16 0.00 0.00
7:53 am 07:53 Clear -7 -21.7 -13 -25 75 75 W 5 7 30.26 1025 10 16 0.00 0.00
8:53 am 08:53 Sunny -7 -21.7 -13 -25 75 75 W 9 15 30.27 1025 10 16 0.00 0.00
9:53 am 09:53 Sunny -5 -20.6 -11 -23.9 75 75 WNW 9 15 30.28 1026 10 16 0.00 0.00
10:53 am 10:53 Sunny -2 -18.9 -10 -23.3 68 68 NW 5 7 30.28 1026 10 16 0.00 0.00
11:53 am 11:53 Sunny 0 -17.8 -8 -22.2 69 69 W 9 15 30.27 1025 10 16 0.00 0.00
12:53 pm 12:53 Sunny 2 -16.7 -6 -21.1 69 69 W 10 17 30.24 1024 10 16 0.00 0.00
1:53 pm 13:53 Sunny 4 -15.6 -5 -20.6 66 66 W 13 20 30.22 1023 10 16 0.00 0.00
2:53 pm 14:53 Sunny 4 -15.6 -3 -19.4 73 73 WSW 15 24 30.20 1023 10 16 0.00 0.00
3:53 pm 15:53 Sunny 3 -16.1 -4 -20 72 72 SSW 8 13 30.20 1023 10 16 0.00 0.00
4:53 pm 16:53 Cloudy 4 -15.6 -3 -19.4 73 73 S 6 9 30.18 1022 10 16 0.00 0.00
5:53 pm 17:53 Cloudy 6 -14.4 -1 -18.3 73 73 SSW 10 17 30.16 1021 10 16 0.00 0.00
6:36 pm 18:36 Mostly Cloudy 7 -13.9 0 -17.8 73 73 SSW 13 20 30.18 1022 10 16 0.00 0.00
6:53 pm 18:53 Cloudy 7 -13.9 0 -17.8 73 73 SSW 10 17 30.15 1021 10 16 0.00 0.00
7:26 pm 19:26 Cloudy 7 -13.9 1 -17.2 76 76 S 9 15 30.18 1022 10 16 0.00 0.00
7:53 pm 19:53 Cloudy 7 -13.9 1 -17.2 76 76 S 9 15 30.13 1020 10 16 0.00 0.00
8:53 pm 20:53 Cloudy 8 -13.3 2 -16.7 76 76 SSW 12 19 30.11 1020 10 16 0.00 0.00
9:32 pm 21:32 Cloudy 8 -13.3 2 -16.7 76 76 SSW 10 17 30.18 1022 10 16 0.00 0.00
9:53 pm 21:53 Cloudy 9 -12.8 3 -16.1 77 77 S 7 11 30.09 1019 10 16 0.00 0.00
10:10 pm 22:10 Cloudy 9 -12.8 3 -16.1 77 77 S 9 15 30.18 1022 10 16 0.00 0.00
10:53 pm 22:53 Cloudy 10 -12.2 5 -15 80 80 SSW 9 15 30.08 1019 10 16 0.00 0.00
11:53 pm 23:53 Cloudy 10 -12.2 5 -15 80 80 S 9 15 30.05 1018 10 16 0.00 0.00

Powered by AerisWeather